User: anonymous   Login
Location: Mentone
(34.5413°N, 85.5351°W)
Time: 12:12:46
(UTC-05:00)
Language:

Tiros 1 despin weight - Orbit

View from above orbital plane
View from above orbital plane
View from above satellite
View from above satellite

Ground track
Ground track

The orbit data is extracted from the following two-line orbital elements,

1 00115U 60002D   15115.44954904  .00002678  00000-0  35781-3 0  9997
2 00115 048.1661 307.2766 0035859 249.5268 110.1793 14.81973268933929
Epoch (UTC): 25 April 2015 10:47:21
Eccentricity: 0.0035859
inclination: 48.1661°
perigee height: 598 km
apogee height: 648 km
right ascension of ascending node: 307.2766°
argument of perigee: 249.5268°
revolutions per day: 14.81973268
mean anomaly at epoch: 110.1793°
orbit number at epoch: 93392

The dashed part of the orbit path shows where the satellite is in the earth's shadow,  

DLR